DW4128 Weather Reports


Display with metric or nautical units.
time (UTC)temp
F
wind
direction
speed
MPH
gust
MPH
rain 1hr
in
rain 24hr
in
rain mn
in
humidity
%
barometer
mb
20260507024543 53 157 0.0 0.0 0.00 0.00 0.00 96 1008.3
20260507023036 53 157 0.0 0.0 0.00 0.00 0.00 97 1008.4
20260507021534 53 157 0.0 0.0 0.00 0.00 0.00 97 1008.3
20260507020034 53 157 0.0 0.0 0.00 0.00 0.00 96 1008.3
20260507014533 53 157 0.0 0.0 0.00 0.00 0.00 96 1008.1
20260507013036 52 157 0.0 0.0 0.00 0.00 0.00 96 1008.1
20260507011534 52 157 0.0 0.0 0.00 0.00 0.00 96 1008.0
20260507010037 52 157 1.0 0.0 0.00 0.00 0.00 96 1007.9
20260507004530 52 128 0.0 0.0 0.00 0.00 0.00 96 1008.0
20260507003029 51 128 0.0 0.0 0.00 0.00 0.00 95 1008.0
20260507001530 51 128 0.0 0.0 0.00 0.00 0.00 95 1007.8
20260507000029 52 128 0.0 0.0 0.00 0.00 0.00 95 1007.8
20260506234543 51 128 0.0 0.0 0.00 0.00 0.00 95 1007.8
20260506233025 52 128 0.0 0.0 0.00 0.00 0.00 95 1007.6
20260506231524 52 128 0.0 0.0 0.00 0.00 0.00 95 1007.3
20260506230023 53 128 0.0 0.0 0.00 0.00 0.00 95 1007.3
20260506224528 53 127 0.0 0.0 0.00 0.00 0.00 94 1007.4
20260506223022 53 127 0.0 0.0 0.00 0.00 0.00 94 1007.3
20260506221520 53 127 0.0 0.0 0.00 0.00 0.00 94 1007.5
20260506220030 54 127 0.0 0.0 0.00 0.00 0.28 94 1007.5
20260506214517 54 127 0.0 0.0 0.00 0.00 0.28 94 1007.2
20260506213016 54 127 0.0 0.0 0.00 0.00 0.28 94 1007.2
20260506211519 55 127 0.0 0.0 0.00 0.00 0.28 94 1007.1
20260506210013 55 127 0.0 0.0 0.00 0.00 0.28 93 1007.1
20260506204515 55 127 0.0 0.0 0.00 0.00 0.28 93 1006.8
20260506203015 55 127 0.0 0.0 0.00 0.00 0.28 93 1006.6
20260506201516 56 127 0.0 0.0 0.00 0.00 0.28 93 1006.6
20260506200012 56 127 0.0 0.0 0.00 0.00 0.28 93 1006.3
20260506194512 56 128 0.0 0.0 0.00 0.00 0.27 93 1006.0
20260506193012 56 130 0.0 0.0 0.00 0.00 0.27 93 1005.8
20260506191511 56 44 0.0 0.0 0.00 0.00 0.27 93 1005.5
20260506190010 57 44 0.0 0.0 0.00 0.00 0.26 92 1005.1
20260506184510 57 44 0.0 0.0 0.00 0.00 0.26 91 1004.8
20260506183010 57 44 0.0 0.0 0.00 0.00 0.25 90 1004.3
20260506181509 58 44 0.0 0.0 0.00 0.00 0.25 90 1004.3
20260506180009 58 44 0.0 0.0 0.00 0.00 0.24 90 1004.1
20260506174508 59 89 0.0 0.0 0.00 0.00 0.23 90 1004.0
20260506173008 59 343 0.0 0.0 0.00 0.00 0.21 90 1003.9
20260506171508 59 59 0.0 0.0 0.00 0.00 0.19 89 1003.6
20260506170008 59 171 1.0 0.0 0.00 0.00 0.16 86 1003.6
20260506164513 60 117 0.0 0.0 0.00 0.00 0.12 83 1003.5
20260506163006 62 85 1.0 0.0 0.00 0.00 0.10 78 1003.2
20260506161506 64 342 1.0 0.0 0.00 0.00 0.08 78 1002.8
20260506160006 66 58 0.0 0.0 0.00 0.00 0.05 75 1002.6
20260506154514 66 17 0.0 0.0 0.00 0.00 0.02 69 1002.4
20260506153003 67 340 1.0 0.0 0.00 0.00 0.02 64 1002.2
20260506151503 68 325 1.0 0.0 0.00 0.00 0.02 61 1002.4
20260506150002 69 45 0.0 0.0 0.00 0.00 0.02 60 1002.2
20260506144501 69 49 1.0 0.0 0.00 0.00 0.02 58 1002.3
20260506143001 71 79 1.0 0.0 0.00 0.00 0.02 58 1002.4
20260506141601 72 342 1.0 0.0 0.00 0.00 0.02 53 1002.4
20260506140100 73 62 1.0 0.0 0.00 0.00 0.02 53 1002.5
20260506134600 71 337 1.0 0.0 0.00 0.00 0.02 56 1002.7
20260506133114 72 0 0.0 0.0 0.00 0.00 0.02 51 1002.9
20260506131603 73 359 1.0 0.0 0.00 0.00 0.02 54 1002.8
20260506130056 71 95 1.0 0.0 0.00 0.00 0.02 53 1002.9
20260506124558 71 274 1.0 0.0 0.00 0.00 0.02 56 1003.1
20260506123051 71 78 1.0 0.0 0.00 0.00 0.02 58 1003.1
20260506121549 70 37 1.0 0.0 0.00 0.00 0.02 55 1003.2
20260506120046 69 339 2.0 0.0 0.00 0.00 0.02 61 1003.3
20260506114544 68 85 1.0 0.0 0.00 0.00 0.02 61 1003.4
20260506113043 67 322 1.0 0.0 0.00 0.00 0.02 64 1003.5
20260506111542 67 10 1.0 0.0 0.00 0.00 0.02 65 1003.5
20260506110037 66 302 1.0 0.0 0.00 0.00 0.01 66 1003.7
20260506104533 66 354 0.0 0.0 0.00 0.00 0.01 66 1003.8
20260506103037 64 359 2.0 0.0 0.00 0.00 0.01 71 1003.9
20260506101530 63 346 2.0 0.0 0.00 0.00 0.01 76 1003.9
20260506100035 61 254 2.0 0.0 0.00 0.00 0.01 78 1004.0
20260506094535 61 309 2.0 0.0 0.00 0.00 0.01 74 1003.9
20260506093034 64 352 2.0 0.0 0.00 0.00 0.01 72 1003.8
20260506091528 65 299 2.0 0.0 0.00 0.00 0.01 69 1003.8
20260506090021 63 210 3.0 0.0 0.00 0.00 0.01 71 1003.9
20260506084518 62 119 1.0 0.0 0.00 0.00 0.01 77 1004.0
20260506083014 61 117 1.0 0.0 0.00 0.00 0.01 81 1004.1
20260506081510 60 117 0.0 0.0 0.00 0.00 0.01 85 1004.3
20260506073057 59 119 0.0 0.0 0.00 0.00 0.01 88 1004.3
20260506071553 58 120 0.0 0.0 0.00 0.00 0.01 94 1004.2
20260506061546 56 120 0.0 0.0 0.00 0.00 0.01 96 1004.8
20260506044543 56 120 0.0 0.0 0.00 0.00 0.01 96 1005.4
20260506043041 55 23 0.0 0.0 0.00 0.00 0.01 96 1005.5
20260506041539 55 23 0.0 0.0 0.00 0.00 0.01 96 1005.8
20260506040040 55 23 0.0 0.0 0.00 0.00 0.01 95 1005.5
20260506034538 55 23 0.0 0.0 0.00 0.00 0.01 95 1005.8
20260506033038 55 23 0.0 0.0 0.00 0.00 0.01 95 1006.0
20260506031537 55 23 0.0 0.0 0.00 0.00 0.01 95 1006.1
20260506030037 55 23 0.0 0.0 0.00 0.00 0.01 95 1006.4